Snowfall_Accumulation
0.0 0.0 0.0 0.0 0.0 0.0 0.0 0.0 1.5 0.0 0.0 0.1 0.0 6.8 0.0 0.0 0.0 0.0 0.0 0.0 0.0 0.0 0.0 0.0 0.0 0.0 0.0 0.0 0.0 0.0 0.0 0.0 0.0 0.0 0.0 0.0 0.0 0.0 0.0 0.0 0.0 0.0 0.0 0.0
0.0 0.0 0.0 0.0 0.0 0.0 0.0 0.5 0.0 0.0 0.0 1.7 0.0 0.0 0.0 0.0 0.0 0.0 0.0 0.0 0.0 0.0 0.0 0.1 0.0 0.0 0.0 0.0 0.0 0.0 0.0 0.0 0.1 0.0 0.0 0.0 0.0 0.0 0.0 0.0 0.0 0.0 0.0 0.0
0.0 0.0 0.0 0.0 0.0 0.0 0.0 0.0 3.1 0.0 0.0 0.0 2.5 0.0 1.6 0.0 0.0 0.0 0.0 0.0 0.0 0.0 0.0 0.0 0.0 0.0 0.0 0.0 0.0 0.0 0.0 0.0 0.0 0.1 0.0 0.0 0.0 0.0 0.0 0.0 0.0 0.0 0.0 0.0
0.0 0.0 0.0 0.0 0.0 0.0 0.0 2.6 5.0 0.0 0.5 5.6 0.0 2.1 0.0 0.0 0.0 0.0 0.0 0.0 0.0 0.0 0.3 0.0 0.0 0.0 0.0 0.0 0.0 0.0 0.0 0.0 0.0 0.0 0.0 0.0 0.0 0.0 0.0 0.0 0.0 0.0 0.0 0.0
0.0 0.0 0.0 0.0 0.0 0.0 0.0 9.2 4.8 0.0 0.0 0.0 0.0 0.1 0.6 0.1 0.0 0.2 0.0 0.0 0.0 0.0 0.0 0.0 0.0 0.0 0.0 0.3 0.0 0.0 0.0 0.0 0.0 0.0 0.0 0.0 0.0 0.0 0.0 0.0 0.0 0.0 0.0 0.0
0.0 0.0 0.0 0.0 0.0 0.0 0.0 0.0 0.0 1.7 0.0 0.0 0.1 0.7 0.0 0.0 0.0 0.0 0.0 0.0 0.0 0.3 0.0 0.0 0.0 0.0 0.0 0.0 0.6 1.0 0.0 0.0 0.0 0.0 0.0 0.0 0.0 0.0 0.0 0.0 0.0 0.0 0.0 0.0
0.0 0.0 0.0 0.0 0.0 0.0 0.0 0.0 0.0 6.0 5.6 0.8 1.6 0.0 0.0 0.0 0.0 0.0 0.0 0.0 0.0 0.0 0.0 0.0 0.0 0.0 0.0 0.0 0.0 0.0 1.3 1.1 0.0 0.7 0.0 0.8 0.0 0.0 0.0 0.0 0.0 0.0 0.0 0.0
0.0 0.0 0.0 0.0 0.0 0.0 0.0 0.0 0.0 1.7 3.9 0.3 0.1 0.0 0.0 0.0 0.0 0.0 0.0 0.0 0.0 0.0 0.0 2.4 2.7 1.3 0.0 0.0 0.0 0.0 0.0 0.4 0.0 1.5 1.6 0.0 0.0 0.0 0.0 0.0 0.0 0.0 0.0 0.0
0.0 0.0 0.0 0.0 0.0 0.0 0.0 0.0 0.0 0.0 4.3 0.6 0.1 0.0 0.0 0.0 0.3 0.0 0.0 0.0 0.0 0.0 0.1 4.1 10.5 3.7 0.7 0.0 0.0 0.0 0.0 0.0 0.0 0.9 3.0 1.2 0.0 0.0 0.0 0.0 0.0 0.0 0.0 0.0
0.0 0.0 0.0 0.0 0.0 0.0 0.0 0.0 0.0 0.0 6.2 1.2 0.1 0.0 0.1 0.0 0.0 0.0 0.0 0.0 0.0 0.0 0.3 3.7 6.9 2.8 0.0 0.0 0.0 0.0 0.0 0.0 0.3 0.0 2.3 0.0 0.0 0.0 0.0 0.0 0.0 0.0 0.0 0.0
0.0 0.0 0.0 0.0 0.0 0.0 0.0 0.0 0.0 0.0 3.4 1.4 0.0 0.0 0.0 0.0 0.1 1.5 0.0 0.0 0.0 0.2 0.5 3.8 2.3 1.5 0.0 0.0 0.0 0.0 0.0 0.3 0.2 0.0 0.4 0.0 0.0 0.0 0.0 0.0 0.0 0.0 0.0 0.0
0.0 0.0 0.0 0.0 0.0 0.0 0.0 0.0 0.0 0.0 3.3 1.9 0.0 0.0 0.0 0.0 0.0 0.0 0.0 0.1 0.1 0.3 0.0 1.8 0.0 0.9 0.8 0.9 0.0 0.0 0.3 0.0 0.0 0.0 0.0 0.0 0.0 0.0 0.0 0.0 0.0 0.0 0.0 0.0
0.0 0.0 0.0 0.0 0.0 0.0 0.0 0.0 0.0 0.0 3.7 6.1 0.0 0.1 0.0 0.0 0.0 0.0 1.8 0.0 0.0 0.0 0.0 5.9 4.1 5.4 2.5 0.6 0.0 0.0 0.0 0.0 0.0 0.0 0.0 0.0 0.0 0.0 0.0 0.0 0.0 0.0 0.0 0.0
0.0 0.0 0.0 0.0 0.0 0.0 0.0 0.0 0.0 0.0 2.3 13.4 9.3 0.0 0.0 0.0 0.0 0.0 0.0 0.0 0.0 0.0 0.0 10.9 8.8 7.4 7.5 7.7 3.1 1.8 0.0 0.0 0.0 0.0 0.0 0.0 0.0 0.0 0.0 0.0 0.0 0.0 0.0 0.0
0.0 0.0 0.0 0.0 0.0 0.0 0.0 0.0 0.0 0.0 0.0 9.9 4.7 0.0 0.0 0.0 0.0 0.0 0.0 0.0 0.0 0.0 7.7 10.0 8.0 2.4 3.8 3.7 3.8 2.1 0.0 0.0 0.0 1.2 0.0 0.0 0.0 0.0 0.0 0.0 0.0 0.0 0.0 0.0
0.0 0.0 0.0 0.0 0.0 0.0 0.0 10.3 0.0 0.0 0.0 1.9 6.3 0.0 0.0 0.0 0.0 0.0 0.0 0.0 0.0 0.0 5.5 9.3 3.5 0.0 1.2 6.2 3.0 0.0 0.0 0.0 0.0 0.0 0.0 0.0 0.0 0.0 0.0 0.0 0.0 0.0 0.0 0.0
0.0 0.0 0.0 0.0 0.0 0.0 8.6 5.1 0.0 0.0 0.0 6.4 8.0 5.9 0.0 0.0 0.0 0.0 0.0 0.0 0.0 0.0 5.2 8.1 4.8 0.9 0.0 3.3 1.6 0.0 0.0 0.0 0.0 0.0 0.0 0.0 0.0 0.0 0.0 0.0 0.0 0.0 0.0 0.0
0.0 0.0 0.0 0.0 0.0 0.0 0.0 0.0 0.0 0.0 0.0 6.0 7.6 6.5 7.7 0.0 4.9 4.9 0.0 2.0 3.3 7.1 4.8 4.2 2.0 3.0 2.7 1.8 0.0 0.0 0.0 0.0 0.0 0.0 0.0 0.0 0.0 0.0 0.0 0.0 0.0 0.0 0.0 0.0
0.0 0.0 0.0 0.0 0.0 2.9 0.0 0.0 0.0 0.0 0.0 6.3 4.7 3.8 5.6 3.1 7.3 4.8 4.8 3.0 5.8 5.1 5.1 3.5 1.7 4.2 4.0 0.0 0.0 0.0 0.0 0.0 0.0 0.0 0.0 0.0 0.0 0.0 0.0 0.0 0.0 0.0 0.0 0.0
0.0 0.0 0.0 6.3 0.0 0.0 0.0 0.0 2.5 1.6 1.0 3.7 3.4 0.3 3.7 3.4 6.0 4.7 5.3 4.2 4.1 3.6 3.0 2.4 3.1 1.6 0.0 0.0 0.0 0.0 0.0 0.0 0.0 0.0 0.0 0.0 0.0 0.0 0.0 0.0 0.0 0.0 0.0 0.0
0.0 0.5 3.6 0.0 0.0 0.0 0.7 4.9 4.2 3.3 3.5 2.2 2.7 2.5 2.9 2.3 5.5 3.9 2.6 3.4 3.5 2.3 1.3 1.4 1.6 0.8 0.0 0.0 0.0 0.0 0.0 0.0 0.0 0.0 0.0 0.0 0.0 0.0 0.0 0.0 0.0 0.0 0.0 0.0
0.0 0.0 0.0 0.0 0.0 1.6 1.8 2.2 1.6 1.6 1.9 1.5 1.5 2.4 2.0 2.8 1.9 5.2 5.0 3.4 2.5 1.4 1.2 0.7 0.7 0.1 0.0 0.0 0.0 0.0 0.0 0.0 0.0 0.0 0.0 0.0 0.0 0.0 0.0 0.0 0.0 0.0 0.5 0.9
0.0 0.0 0.3 0.2 0.6 0.7 1.0 0.7 0.6 1.3 0.5 0.6 0.9 1.8 2.2 2.0 1.5 2.3 3.4 3.6 2.6 1.7 1.4 0.9 0.1 0.0 0.0 0.0 0.0 0.3 0.0 0.0 0.0 0.0 0.0 0.0 0.0 0.0 0.0 0.0 1.0 1.1 0.4 0.4
0.0 0.0 0.0 0.3 0.1 0.6 1.4 0.7 1.0 0.4 0.3 0.7 0.7 0.7 0.7 0.6 0.7 0.8 1.0 1.2 1.2 1.2 0.8 0.4 0.4 0.1 0.2 0.5 0.1 0.0 0.5 0.4 0.2 0.0 0.0 0.0 0.0 0.1 0.6 1.1 1.1 0.5 0.0 0.1
0.0 0.0 0.1 0.5 0.9 0.1 0.4 0.5 0.8 0.5 0.1 0.0 0.1 0.2 0.2 0.1 0.3 0.1 0.2 0.1 0.2 0.1 0.0 0.7 0.1 0.5 0.8 0.9 0.4 0.1 0.1 0.1 0.1 0.0 0.1 0.1 0.0 0.0 0.1 0.1 0.0 0.0 0.0 0.0
0.0 0.0 0.0 0.1 0.1 0.4 0.3 0.0 0.1 0.0 0.0 0.0 0.0 0.2 0.3 0.1 0.2 0.2 0.1 0.1 0.0 0.0 0.4 0.0 0.0 0.2 0.3 0.2 0.0 0.0 0.0 0.0 0.0 0.0 0.0 0.0 0.0 0.0 0.0 0.0 0.0 0.0 0.0 0.0
0.0 0.0 0.0 0.0 0.0 0.0 0.0 0.0 0.0 0.0 0.0 0.2 0.3 0.0 0.0 0.3 0.3 0.1 0.0 0.0 0.1 0.0 0.0 0.0 0.0 0.0 0.0 0.0 0.0 0.5 0.6 0.0 0.0 0.0 0.0 0.0 0.0 0.0 0.0 0.0 0.0 0.0 0.0 0.0